Wind_Speed
30 28 27 26 24 23 21 20 21 21 22 22 21 20 19 19 19 19 19 19 18 19 19 19 20 21 23 24 24 25 25 24 24 24 25 25 26 25 26 26 25 26 26 27 28 29 30 30 31 32 32 33 34 34 36 37 37 37 38 38 38 37 38 38 37 35 32 31 32 34 37 40 43 44 43 40 35 32 35 40 43 45 47 48 49
32 30 29 28 26 25 24 23 22 22 22 22 22 21 21 20 20 20 20 20 21 21 21 22 22 23 24 25 26 26 26 26 25 25 25 26 27 27 27 27 28 27 28 29 29 30 31 32 32 33 34 35 35 36 37 37 38 39 39 40 41 40 40 40 40 38 36 34 35 37 39 41 43 43 42 41 38 34 35 39 43 45 47 49 50
34 32 32 31 29 28 28 27 25 23 23 23 23 23 22 22 22 22 22 22 23 24 24 24 24 24 25 26 27 28 28 28 27 27 26 27 28 28 28 29 30 30 30 31 32 32 33 34 34 35 36 37 37 37 38 38 39 40 40 41 42 43 42 42 43 42 39 38 36 37 40 42 43 44 42 41 39 36 36 39 43 46 48 50 52
35 35 34 33 31 31 32 31 28 26 25 25 25 25 24 24 25 25 25 25 25 25 25 26 26 26 26 27 28 29 29 30 30 29 28 28 30 30 31 31 32 32 33 33 34 35 36 36 36 37 38 39 39 39 39 39 40 41 41 42 43 44 44 44 45 44 43 42 39 38 40 42 44 44 43 42 40 37 37 40 43 47 49 51 53
37 37 36 34 34 35 34 33 32 29 27 26 27 27 27 27 27 27 27 27 27 27 27 28 28 28 28 28 29 30 31 32 32 32 30 30 31 32 32 33 33 35 36 36 36 37 38 38 39 39 40 41 41 41 41 41 41 41 42 43 44 45 46 46 47 46 45 44 43 40 40 42 44 44 43 42 40 38 38 40 43 47 50 51 53
38 38 37 36 37 37 36 35 34 31 29 29 29 29 30 30 29 29 29 29 29 30 30 30 31 31 31 31 31 32 33 33 34 34 33 32 32 32 34 35 35 37 38 39 39 40 40 40 41 42 43 43 44 44 44 44 44 43 44 45 46 47 48 48 49 48 47 46 45 42 41 42 43 43 41 39 38 38 39 41 43 47 50 52 54
40 40 39 39 39 39 38 37 35 33 32 32 32 32 32 32 31 31 31 32 32 32 33 33 33 34 34 33 34 34 34 35 35 36 35 33 33 33 35 37 38 39 40 41 42 42 43 43 44 45 45 45 46 46 46 46 46 46 45 46 47 49 50 50 50 50 49 48 47 44 42 42 43 41 39 37 37 38 40 42 43 47 50 52 54
42 41 41 41 42 42 40 38 36 34 34 34 35 35 34 34 34 34 34 34 35 35 35 36 36 37 36 36 36 36 36 36 36 37 36 35 35 35 36 38 40 41 42 44 45 45 46 46 47 48 48 47 47 48 48 48 49 49 48 48 49 50 52 53 52 52 51 50 49 47 44 43 41 38 36 35 36 39 41 43 44 47 50 52 54
42 41 41 41 42 42 40 38 37 35 35 36 37 36 36 36 36 36 36 37 37 38 38 39 39 39 39 39 38 38 38 38 38 38 38 37 37 38 39 40 42 43 44 46 47 48 49 49 49 50 50 50 49 50 50 51 51 52 52 51 50 52 54 55 55 54 53 51 50 48 45 44 41 37 34 34 37 39 41 44 46 48 51 52 54
42 41 41 41 41 40 38 37 37 36 36 37 37 37 37 38 38 39 39 40 40 40 41 41 42 41 41 41 40 40 40 40 40 40 40 40 40 41 42 43 45 46 47 48 50 50 51 51 51 52 52 52 52 52 53 53 54 55 55 54 53 53 55 56 56 56 54 52 51 48 45 44 41 36 33 34 37 39 41 44 47 49 52 52 53
43 42 42 41 40 39 39 38 38 37 38 38 39 39 39 40 41 42 42 43 42 43 43 43 43 43 42 42 42 42 43 43 43 43 43 43 43 44 45 46 47 49 50 51 52 52 53 53 53 54 55 55 55 55 56 56 57 57 58 58 56 55 56 57 57 57 55 53 50 47 44 43 39 34 32 34 37 40 42 45 47 50 52 52 53
43 43 43 42 41 41 41 41 40 40 41 41 42 42 42 43 44 45 45 45 45 45 45 45 45 44 44 44 44 45 45 45 46 46 46 46 47 47 48 49 50 51 52 53 54 54 55 56 56 57 58 58 58 59 59 59 59 60 60 60 59 57 56 57 58 57 54 51 48 45 43 42 38 33 32 35 38 41 43 45 48 51 52 52 53
44 44 43 43 43 43 43 42 42 44 44 44 45 45 45 46 46 47 47 47 47 47 47 47 46 46 47 47 47 48 48 49 50 49 49 49 49 50 51 51 52 53 55 55 56 57 58 59 59 60 61 62 62 62 62 61 61 61 61 61 61 59 57 56 56 55 51 48 46 43 42 40 36 33 34 37 40 42 45 47 49 52 52 53 54
44 44 44 44 44 45 44 44 44 45 46 46 46 46 47 47 47 48 48 48 49 48 48 48 48 49 49 50 51 51 52 53 53 53 52 52 53 54 54 55 56 57 58 58 59 60 61 62 63 64 64 65 65 64 64 63 62 60 61 61 60 58 55 53 51 50 48 46 44 41 41 40 36 34 35 39 42 44 47 48 50 52 52 52 54
45 45 45 45 46 46 45 45 45 46 47 47 47 48 48 48 49 49 50 50 50 50 50 51 51 51 52 52 53 55 55 56 56 56 56 57 57 58 58 60 61 62 62 62 62 63 63 65 65 65 65 66 66 65 63 62 61 59 58 59 57 54 51 49 49 48 46 44 42 39 39 39 37 34 36 40 43 46 49 50 51 53 52 53 55
47 47 47 48 48 47 47 47 47 48 49 49 50 50 51 51 51 51 51 52 53 53 53 53 54 54 55 55 56 57 58 59 60 61 61 61 61 61 62 62 63 64 64 63 63 63 63 64 64 64 64 63 63 63 60 58 58 57 54 54 51 49 48 49 48 46 43 41 39 37 38 38 36 35 38 41 44 47 50 51 51 53 53 53 56
50 50 50 50 50 50 49 49 50 51 51 52 53 54 54 54 53 53 54 55 55 56 56 56 57 57 58 58 58 59 60 61 62 63 63 63 62 61 61 60 59 60 60 59 59 59 59 59 59 59 59 58 59 59 57 54 53 52 51 50 48 47 46 46 44 42 39 38 38 37 36 36 35 36 39 43 46 49 51 50 51 53 53 54 56
53 53 53 53 52 52 52 53 53 54 55 56 56 56 56 56 56 56 57 57 57 57 58 58 58 59 59 59 59 59 59 60 60 60 60 60 59 57 55 54 53 53 54 54 55 55 55 56 56 56 56 56 56 57 55 51 49 48 47 47 46 45 42 40 39 38 37 36 35 36 35 34 35 38 42 44 47 49 50 50 51 53 54 55 57
55 54 54 54 54 54 54 54 55 55 56 57 57 56 56 56 56 56 56 55 55 55 56 56 56 55 55 55 55 55 54 54 54 55 55 55 55 53 51 50 49 50 51 51 52 53 53 55 55 55 55 54 53 55 54 49 45 42 41 43 45 42 36 34 36 38 37 35 34 34 34 33 35 40 43 45 48 49 49 50 51 53 54 56 58
50 50 51 51 51 51 51 51 51 52 52 52 52 51 51 51 51 51 51 51 51 51 51 50 50 50 50 50 50 50 50 50 50 51 51 52 53 52 51 50 49 49 49 49 49 51 52 54 55 55 55 52 51 54 52 47 41 38 37 39 42 39 33 32 35 38 37 34 33 33 32 33 37 42 44 46 48 49 49 50 51 53 55 57 58
42 43 44 44 45 46 45 45 46 46 46 46 45 45 46 46 46 47 47 47 47 47 47 46 46 47 47 47 48 48 49 49 49 50 51 51 52 52 51 51 51 50 49 49 49 50 51 52 53 54 54 52 50 51 50 45 39 35 35 37 38 35 32 33 36 38 37 34 33 33 33 35 39 43 45 47 50 50 50 51 51 53 55 58 59
39 39 40 41 42 42 41 41 42 42 42 42 42 42 43 43 43 44 45 45 44 45 45 45 45 45 45 46 46 47 48 48 48 49 50 51 51 52 51 50 50 50 49 48 49 50 51 51 50 51 52 51 50 49 47 42 36 32 32 34 34 33 32 34 36 37 37 35 33 33 36 39 41 43 45 48 50 51 51 52 53 54 56 58 61
38 38 39 40 40 41 40 40 41 41 41 41 42 42 43 43 43 43 43 43 43 43 44 44 43 43 44 44 45 46 46 47 47 49 51 52 52 52 52 51 50 49 48 48 49 50 51 50 49 49 50 49 50 49 44 38 33 30 29 31 34 34 34 34 35 37 37 37 36 36 39 42 43 44 46 48 50 52 53 53 54 55 57 60 62
39 39 39 40 41 41 41 41 41 41 41 42 42 43 43 43 43 43 43 43 43 43 43 43 43 43 44 45 46 47 48 48 49 51 54 56 56 55 54 53 50 48 48 48 50 50 51 49 47 47 48 47 48 48 44 39 36 34 34 38 41 40 38 35 34 36 38 39 39 40 43 45 45 46 47 48 50 52 53 54 55 57 58 61 63
42 42 42 43 43 43 43 43 42 42 43 43 43 43 44 44 43 44 44 44 44 44 44 45 45 45 46 47 48 49 50 51 52 54 56 58 59 59 59 57 55 52 50 50 51 52 51 48 44 45 46 45 45 47 44 41 40 42 45 48 46 44 42 38 34 35 39 40 41 43 46 47 48 48 49 49 50 53 53 54 56 59 60 62 64
45 45 46 46 46 46 46 46 45 45 45 45 46 46 46 45 45 45 46 46 46 46 47 47 47 47 48 49 49 50 51 53 54 56 58 59 61 62 62 62 61 58 53 53 54 53 50 47 46 45 44 43 45 49 48 47 47 49 51 51 47 44 43 41 37 37 39 40 42 43 46 47 48 50 50 50 51 53 54 55 57 59 61 63 65
48 48 49 49 50 50 50 49 49 48 49 49 49 49 49 48 48 48 49 49 49 49 49 50 49 49 49 50 51 52 53 54 56 58 59 60 61 63 64 64 64 62 58 56 57 55 50 47 44 43 44 46 48 51 51 49 48 48 48 47 44 39 38 40 41 41 42 44 45 45 46 47 48 49 51 51 52 53 54 55 57 59 61 63 65
51 51 52 52 53 52 52 52 52 52 52 52 52 52 52 51 51 52 52 52 52 52 52 52 52 52 52 53 54 54 56 57 59 61 62 61 62 64 66 65 65 64 61 59 59 57 51 43 39 41 46 48 46 46 46 45 43 44 46 44 38 31 29 33 37 40 45 49 50 49 48 47 47 48 50 51 52 52 53 55 57 58 60 62 65
54 54 54 55 55 55 55 55 55 55 55 55 54 54 54 55 55 55 55 55 55 56 56 55 55 55 55 56 56 57 59 61 62 64 65 65 64 65 66 67 66 65 63 61 59 57 51 44 42 47 51 52 51 53 56 56 54 52 49 44 39 34 33 38 42 43 45 48 50 52 52 49 46 46 48 50 51 52 53 54 56 57 58 61 64
57 57 57 58 58 58 57 58 58 58 58 58 57 57 57 58 57 57 57 57 58 58 58 58 59 58 58 59 59 59 61 63 65 66 67 67 67 66 66 68 68 67 65 62 60 58 54 48 47 50 55 58 63 66 69 70 70 68 62 56 52 49 49 54 57 53 48 47 49 51 53 51 47 45 46 49 51 52 52 53 55 55 56 59 62
60 60 60 60 60 60 60 60 60 61 61 60 60 60 60 61 60 60 60 60 61 61 61 61 61 61 60 60 61 61 62 64 66 67 67 67 67 67 67 67 67 68 67 63 59 59 58 53 51 53 57 63 66 67 68 71 73 73 72 69 65 61 59 62 64 59 51 48 48 50 51 50 48 46 45 48 51 52 52 54 55 55 55 58 62
62 62 62 62 62 62 62 63 63 63 63 63 62 63 63 63 63 63 63 64 63 63 64 64 64 64 63 62 62 62 63 64 64 64 63 63 64 64 65 65 65 66 67 63 58 60 62 59 57 57 59 64 67 67 69 73 74 71 69 69 67 64 60 61 63 58 51 47 47 48 49 49 48 46 45 47 51 52 52 54 56 57 57 59 62
64 64 64 64 65 65 65 65 65 65 66 66 65 66 66 66 65 66 67 67 67 67 67 67 67 66 66 65 64 63 63 63 62 60 58 57 59 60 62 62 62 63 65 62 59 61 63 61 57 56 56 58 61 62 64 70 73 71 67 64 63 60 58 58 57 51 46 46 46 45 46 48 48 47 45 47 51 53 53 55 57 58 59 61 64
67 67 67 67 68 68 68 68 68 68 68 68 68 68 69 69 69 69 69 69 70 70 71 70 69 69 68 67 66 65 63 63 61 58 54 53 55 59 61 61 60 60 61 60 58 61 63 62 59 56 54 54 55 54 55 60 66 68 65 61 58 57 57 57 53 46 43 44 44 42 44 47 47 46 46 48 51 54 55 56 57 58 59 61 64
70 70 71 71 71 71 71 71 71 71 71 71 71 71 72 72 72 72 72 72 73 73 73 73 72 71 70 69 68 67 64 62 61 58 55 56 59 62 62 61 60 59 59 58 59 61 61 61 59 56 54 53 51 49 49 52 56 59 60 60 58 55 55 56 54 48 44 45 42 40 43 45 45 44 47 49 52 55 57 57 57 58 60 62 65
74 74 74 74 75 75 75 75 75 75 75 75 75 75 75 75 75 75 75 75 75 76 75 74 73 72 71 70 70 67 62 60 60 59 60 63 68 69 66 63 61 60 58 58 60 61 59 58 57 54 51 49 47 44 46 48 47 45 47 52 54 54 53 54 56 53 47 45 42 41 42 45 45 45 47 49 52 55 57 57 57 58 60 63 65
76 77 77 78 78 78 78 78 78 79 79 79 79 79 79 79 78 78 78 78 78 78 77 76 75 74 72 70 69 65 60 59 59 60 63 67 71 71 68 64 63 63 60 59 60 60 58 57 57 55 49 44 41 40 42 42 38 35 36 38 41 45 48 52 58 58 51 46 44 44 45 46 47 47 49 50 53 56 58 58 59 59 61 65 67
79 79 80 80 81 80 80 81 81 81 81 81 82 82 82 81 81 81 80 80 80 79 78 77 76 73 71 68 65 61 59 60 61 63 66 69 72 71 68 64 64 63 61 59 59 58 55 55 56 54 46 39 38 40 43 43 42 43 44 41 39 42 47 52 57 58 53 49 47 47 47 48 48 49 51 53 55 58 60 60 60 61 64 68 70
81 82 82 83 83 83 83 83 83 83 83 83 84 84 84 83 83 83 82 82 81 80 79 77 75 71 68 66 63 59 59 62 64 66 69 71 71 69 67 65 63 61 58 56 55 54 52 53 53 48 42 37 37 41 46 47 49 54 55 52 51 53 55 57 59 57 53 51 50 49 49 51 51 51 53 56 58 60 62 62 63 65 68 71 72
84 85 85 85 85 85 85 85 86 86 85 86 86 86 86 86 85 85 84 83 82 80 78 76 73 69 67 65 62 60 61 64 66 70 72 72 70 68 66 64 62 59 55 51 49 48 50 51 49 44 40 38 38 42 45 45 48 55 56 55 57 58 57 59 62 58 52 51 51 51 53 55 57 56 57 59 62 64 65 66 67 69 72 73 73
87 87 87 88 88 88 88 89 89 89 88 88 88 88 88 88 87 86 85 84 83 80 77 73 70 67 65 64 62 62 64 66 69 72 73 72 69 67 65 63 60 56 51 47 45 46 49 50 47 41 38 36 37 41 41 38 41 50 56 56 58 58 58 63 64 57 49 49 52 55 57 58 59 60 60 61 64 67 70 70 71 73 74 73 72
89 89 90 90 90 91 91 91 91 91 90 90 90 89 89 89 88 87 85 83 81 78 75 72 70 68 66 64 63 64 66 69 71 73 73 69 66 64 62 60 58 53 48 45 45 45 47 47 44 38 36 37 38 40 40 36 37 45 52 57 58 58 61 66 65 58 52 53 57 60 61 60 61 61 61 63 66 70 72 73 73 74 74 72 71
91 92 92 92 92 92 92 92 92 92 92 91 91 89 88 87 86 85 84 82 79 78 76 75 73 71 68 65 65 67 70 72 73 72 70 66 64 62 59 56 54 52 47 45 44 42 42 44 41 37 37 39 36 33 34 35 38 43 49 55 57 60 64 65 61 57 57 59 61 61 61 61 61 61 62 66 70 73 74 75 75 74 72 71 71
94 94 94 94 94 93 93 93 93 92 92 91 90 89 88 87 86 85 84 82 81 79 78 77 75 71 68 67 69 71 73 74 73 71 66 62 61 60 56 53 52 52 49 46 43 38 37 38 38 35 34 32 28 25 26 29 34 39 45 49 51 54 59 62 59 57 58 59 58 58 59 59 60 61 64 69 73 75 76 76 75 73 71 71 72
95 95 95 94 94 93 93 93 93 92 92 92 91 90 88 88 87 86 85 84 82 80 79 77 75 73 71 72 74 75 75 74 73 69 64 60 59 58 54 51 51 52 51 48 44 37 33 32 33 32 30 27 25 23 23 24 26 30 36 41 44 46 51 56 59 59 58 56 56 57 59 60 61 64 67 71 74 76 77 76 75 73 72 72 73
96 96 95 95 94 94 93 93 93 93 93 92 92 90 88 87 86 84 84 83 82 81 79 78 77 76 76 77 78 78 76 75 75 71 65 60 59 57 53 51 51 52 52 50 45 38 34 34 36 34 27 20 18 18 22 29 36 40 42 45 48 51 55 61 64 63 61 60 59 59 60 61 63 66 70 73 76 77 77 76 74 74 74 74 73
97 96 94 93 93 92 92 92 91 90 89 88 88 88 87 86 85 84 83 82 82 81 80 80 79 80 80 80 80 80 79 79 79 76 69 63 60 58 54 51 52 54 53 50 47 42 38 40 44 42 33 26 24 25 28 36 48 57 59 57 57 60 66 70 71 69 67 66 64 63 62 63 65 68 72 75 77 77 76 76 76 76 75 75 74
94 93 92 91 90 89 88 87 87 86 85 84 86 86 86 86 85 84 83 83 82 81 81 81 81 81 83 83 83 83 83 83 83 80 73 66 63 61 56 52 54 58 57 53 52 50 46 43 45 45 41 38 37 38 40 44 51 61 68 70 69 69 71 73 72 71 71 70 67 65 64 65 67 70 73 75 76 76 77 78 78 77 77 76 76
94 93 92 91 90 88 85 84 83 84 85 86 88 88 88 87 86 85 84 83 82 82 82 82 83 83 85 86 86 87 87 87 87 85 78 71 66 64 60 55 56 60 61 57 57 57 54 49 47 47 47 47 48 51 55 58 60 63 67 71 72 72 72 71 70 70 71 71 69 68 68 70 72 74 75 77 77 78 79 79 79 78 77 76 75
97 94 91 91 91 90 88 87 86 87 88 89 90 89 89 88 87 86 85 85 85 85 86 86 86 87 88 89 89 90 90 91 91 89 84 75 68 65 64 60 58 62 64 62 61 62 60 56 54 54 54 55 57 60 63 66 67 66 67 69 70 71 71 71 70 69 70 71 72 72 73 74 76 78 79 80 80 79 79 78 77 76 75 75 75
96 93 91 90 91 92 93 92 91 90 90 90 89 89 88 88 88 89 89 89 89 89 90 90 90 91 92 92 93 94 95 95 95 93 89 80 70 66 66 63 59 62 67 67 66 68 68 65 63 63 62 62 63 64 65 66 66 65 65 67 68 69 70 70 70 70 70 70 72 73 74 76 78 79 81 81 80 78 76 75 74 74 75 76 78
Wind_Direction
216 219 223 226 228 230 232 235 237 238 240 242 244 247 250 254 258 261 263 267 272 277 281 286 289 293 295 297 299 300 302 303 305 305 305 305 305 306 308 311 313 316 319 322 324 325 326 327 329 329 330 331 333 334 334 334 335 336 337 338 340 343 344 346 347 346 339 328 321 321 325 328 331 335 338 339 337 338 344 347 350 352 354 355 356
217 221 224 228 230 232 234 236 238 240 240 241 243 245 249 251 253 254 258 265 270 275 280 284 288 291 293 296 298 299 300 301 302 302 302 302 301 302 304 306 309 312 314 317 319 321 323 324 325 325 326 327 328 331 331 331 332 333 333 334 335 338 340 341 343 344 341 334 326 323 324 325 328 331 335 336 334 333 339 344 347 349 351 353 354
221 224 227 229 231 233 234 236 238 241 241 240 241 243 246 247 250 253 259 264 270 275 280 283 286 288 291 293 295 296 297 298 299 300 301 301 299 300 302 304 306 309 311 312 315 317 319 321 322 322 322 323 325 326 328 328 329 329 330 331 331 333 335 337 339 341 341 337 330 324 322 322 324 328 332 334 332 329 334 340 344 346 348 350 351
226 228 230 231 233 234 234 235 237 240 241 240 239 240 242 244 248 253 258 263 268 274 279 282 285 287 288 290 291 292 294 295 296 298 299 299 299 299 301 303 305 307 308 310 312 315 316 318 319 319 320 320 322 323 324 325 326 327 328 329 329 329 331 332 334 336 338 337 332 326 322 322 323 325 329 331 330 328 331 337 341 343 346 348 349
229 231 233 235 236 236 236 236 237 240 242 242 241 241 242 244 247 252 257 262 267 272 276 280 283 285 287 288 288 289 290 292 294 296 297 298 298 299 300 302 304 305 306 308 310 312 313 315 315 316 317 318 319 320 321 322 323 324 325 326 326 325 326 328 329 331 333 334 331 327 324 323 323 324 327 329 328 327 329 334 338 341 343 345 347
231 233 234 236 237 238 239 238 239 240 242 244 244 244 245 246 248 252 256 261 266 270 274 277 281 283 286 287 287 287 289 290 292 293 295 296 297 298 300 300 302 303 304 306 308 309 310 311 312 313 314 315 317 318 318 319 319 320 321 322 323 323 323 324 326 327 329 330 330 327 323 321 321 322 326 327 326 326 327 330 335 338 341 343 344
232 233 234 236 238 238 239 240 241 242 243 244 245 246 246 248 250 253 257 261 265 269 273 277 280 282 284 285 286 286 287 288 289 291 293 295 296 296 297 298 299 301 302 304 305 306 307 309 310 311 312 313 314 315 315 316 316 317 318 319 319 319 320 321 323 324 325 327 327 326 323 320 319 321 323 324 325 325 325 327 332 336 338 341 342
233 234 235 237 239 239 240 241 242 243 243 245 246 247 248 250 252 255 259 262 266 270 274 278 280 282 283 284 284 285 285 286 287 289 291 292 293 293 294 295 297 298 300 301 303 304 306 307 308 308 309 310 311 312 312 312 313 314 315 316 316 316 317 318 320 321 322 323 324 323 321 319 319 320 321 322 323 324 324 326 330 334 337 339 340
234 235 236 239 241 242 243 244 244 245 246 247 249 251 252 254 256 259 262 265 269 272 275 277 279 281 282 283 283 284 285 285 286 287 288 289 290 291 292 293 295 297 298 300 301 303 304 305 305 306 307 308 308 309 309 309 310 311 311 312 313 314 314 315 317 318 319 320 321 320 319 318 318 318 319 320 322 323 324 325 328 332 335 338 339
235 237 238 239 242 244 245 246 246 247 248 250 253 255 257 259 261 263 265 267 269 272 274 276 277 279 280 281 282 283 284 284 285 286 287 288 289 291 292 293 295 296 298 298 299 300 301 302 303 303 304 305 305 306 306 307 308 308 309 309 311 312 312 313 314 315 316 316 317 317 316 316 316 316 316 317 319 322 323 324 326 330 334 336 338
236 237 238 240 242 244 245 245 246 247 249 251 253 255 257 260 262 263 264 266 268 270 272 273 275 277 277 278 280 281 282 283 284 285 287 288 289 290 291 293 294 295 295 296 296 297 298 299 300 301 301 301 302 303 304 305 306 306 306 307 308 309 310 311 311 312 313 313 314 314 313 313 314 313 312 314 317 320 322 323 325 328 332 334 337
237 239 240 241 243 244 246 246 248 249 249 251 252 254 256 258 260 262 264 266 267 269 270 272 273 274 275 276 277 279 281 282 283 284 285 287 288 289 290 291 292 292 292 293 294 295 296 297 298 298 298 299 300 301 302 303 303 304 304 305 306 308 308 308 308 309 311 311 311 311 310 311 312 309 308 312 316 318 320 322 324 327 330 333 335
240 241 242 243 244 245 247 249 250 252 252 253 254 256 258 259 261 263 264 266 267 268 270 271 273 274 276 277 278 279 280 281 282 283 285 287 288 288 289 289 289 289 289 290 292 293 294 295 296 296 297 297 299 300 301 301 301 302 302 302 304 306 307 307 306 307 309 309 309 309 308 308 309 306 306 312 316 317 319 321 323 326 329 331 334
243 244 245 246 247 248 249 250 252 254 255 256 257 259 260 261 263 264 265 266 268 269 271 273 274 276 277 279 280 280 281 282 283 285 286 286 287 287 287 288 288 288 289 290 291 292 293 294 294 295 296 297 297 298 299 299 300 300 300 301 303 305 306 305 304 305 307 308 308 308 306 307 307 303 306 313 316 317 319 321 323 325 328 330 333
244 246 247 248 249 250 251 252 253 255 257 258 260 261 261 262 263 264 266 268 270 272 273 274 276 276 277 279 280 282 283 284 285 285 285 286 286 287 287 288 288 289 289 290 291 291 292 293 293 294 295 295 296 297 298 298 299 299 299 301 303 304 304 304 303 305 307 306 306 306 304 305 305 303 307 313 316 318 320 322 324 326 328 329 331
246 248 249 250 252 253 254 255 256 257 259 260 261 262 262 263 265 267 269 271 272 273 274 275 276 277 278 279 280 281 283 284 284 284 284 285 286 286 287 287 288 288 289 289 290 291 292 292 293 293 294 295 295 296 297 299 299 300 300 301 302 303 303 303 302 304 306 305 305 304 303 303 304 304 309 314 317 319 321 323 325 327 329 329 330
248 250 251 252 254 256 257 258 259 260 261 262 262 263 264 266 267 268 270 271 272 274 275 276 277 278 279 279 280 280 281 282 282 283 283 284 285 285 286 286 287 288 288 289 290 291 291 291 292 293 293 294 295 296 298 299 300 301 301 301 302 302 301 302 302 303 304 304 304 305 303 303 303 306 312 316 318 321 322 324 326 328 329 329 330
250 251 253 254 255 257 257 258 260 261 262 262 263 265 266 268 269 269 270 271 272 273 274 275 276 277 278 279 279 280 280 281 282 282 283 284 285 285 285 286 287 288 288 290 291 291 292 291 292 292 293 295 296 296 298 300 302 303 302 301 301 300 300 301 301 301 303 304 304 305 305 304 303 307 313 317 319 322 323 325 327 328 329 329 329
251 253 254 255 256 257 257 258 259 261 262 264 265 266 268 268 269 269 270 271 272 273 274 275 276 277 278 279 280 281 282 282 283 283 284 285 286 286 286 287 287 287 288 290 291 292 292 291 291 292 292 294 296 296 297 301 303 304 301 298 298 299 301 299 296 298 303 304 305 306 306 304 304 309 315 318 320 322 324 326 328 328 329 329 329
251 253 254 255 256 256 257 258 259 260 262 264 265 267 268 268 269 270 270 271 272 274 275 276 278 279 280 281 281 282 283 283 284 285 285 286 287 287 288 287 286 286 287 289 290 290 290 291 292 292 292 294 295 296 297 301 304 303 299 294 294 297 299 297 294 297 302 305 307 307 304 303 306 311 316 319 320 322 325 327 327 328 328 328 329
250 251 253 254 256 257 257 258 259 260 261 263 264 265 266 268 269 270 272 273 274 275 277 278 279 280 281 282 283 283 284 284 285 286 287 288 288 289 289 289 288 288 289 290 290 290 289 290 292 293 293 294 295 295 297 300 303 302 294 289 290 294 298 299 297 298 300 304 307 305 301 303 308 312 316 318 319 322 326 327 327 328 328 328 329
249 250 251 253 254 255 256 256 257 258 259 260 261 263 264 266 268 271 273 274 276 277 278 279 280 281 283 283 284 285 286 287 288 290 290 291 291 292 292 291 291 291 291 291 290 289 289 290 291 292 293 293 293 294 296 299 301 299 292 289 291 296 303 306 302 298 300 303 305 303 300 303 308 312 314 317 319 322 325 325 325 326 327 328 329
249 250 252 253 254 255 256 256 257 258 259 260 261 263 264 265 267 270 272 273 275 277 279 280 282 283 285 286 287 288 290 291 293 294 293 293 293 294 294 293 293 293 293 291 290 289 288 289 290 291 292 292 293 293 294 296 296 294 294 298 299 299 304 310 306 299 298 301 303 302 300 303 307 310 313 316 318 321 323 324 324 325 326 327 328
251 252 254 255 257 258 259 258 259 259 260 261 263 264 266 267 269 271 273 275 277 279 280 282 284 286 288 289 290 292 293 295 295 295 294 294 295 296 297 296 296 295 294 292 291 290 289 289 290 291 292 292 292 292 292 292 289 286 292 300 300 295 296 302 302 298 297 299 301 300 299 302 306 309 312 315 317 319 322 323 323 324 325 325 326
253 254 256 257 259 260 261 262 262 262 263 263 265 266 268 270 272 273 275 278 279 281 283 285 286 287 289 290 291 293 294 295 294 293 293 294 296 297 298 298 298 298 297 295 294 292 292 291 291 292 293 293 292 291 291 291 289 288 292 296 294 288 287 290 295 295 295 296 298 299 299 301 304 307 310 313 315 317 321 322 321 321 322 323 324
257 258 259 260 261 263 264 264 265 266 266 267 269 270 272 273 275 276 278 279 281 282 283 284 285 286 288 289 290 291 292 292 292 291 292 293 295 296 296 297 298 300 300 299 296 294 293 294 294 294 294 295 294 293 293 294 293 293 293 293 290 284 281 281 284 289 292 293 295 299 301 301 301 304 307 311 314 315 318 319 319 319 320 321 322
259 261 262 263 264 265 266 267 268 268 270 271 272 274 276 277 278 279 280 280 281 282 282 282 283 284 285 286 288 289 289 289 289 289 290 292 293 293 294 295 296 298 300 300 297 295 295 296 297 296 296 297 297 296 296 297 297 296 294 292 289 286 283 282 282 283 285 289 293 297 300 300 299 302 306 310 312 313 314 315 316 318 319 320 320
260 261 262 263 264 265 267 268 268 270 271 273 275 276 278 279 279 280 280 281 281 281 281 282 283 284 285 286 287 288 289 290 289 290 290 291 291 291 292 293 294 296 297 297 295 294 296 299 301 302 302 301 300 298 297 297 298 299 298 294 291 291 293 296 295 289 285 287 291 294 298 298 297 299 305 308 310 311 312 312 314 316 318 318 318
260 261 262 262 263 264 265 266 267 269 270 272 273 275 277 278 278 279 280 281 281 282 282 283 284 285 286 287 288 289 290 291 291 292 292 291 290 289 289 290 291 292 293 294 293 292 294 297 300 302 303 299 295 294 294 292 292 294 294 292 290 292 297 301 303 300 294 292 291 291 293 295 295 298 304 307 308 309 310 310 312 315 316 316 315
260 260 261 262 262 263 264 265 267 268 269 271 272 274 275 276 277 279 280 280 281 282 283 284 285 286 287 288 289 290 291 292 293 293 293 292 291 289 288 288 288 288 289 290 290 290 290 291 294 296 294 290 288 290 291 289 288 287 286 284 282 284 289 294 297 298 297 295 294 291 290 291 293 298 303 306 306 307 308 309 311 314 314 313 313
260 261 261 262 263 264 265 266 268 269 270 272 273 274 276 277 278 279 280 280 281 282 283 284 285 286 287 289 290 292 293 294 294 294 293 292 290 289 288 287 287 287 287 287 286 285 283 282 282 283 280 277 277 278 279 279 279 280 280 279 277 278 281 286 290 293 293 292 294 292 288 289 293 296 300 304 306 307 309 309 311 313 313 312 313
261 261 262 263 264 266 267 268 269 271 272 273 275 276 277 278 280 280 281 281 282 283 284 285 286 288 289 290 292 293 295 295 295 295 293 292 291 290 288 287 287 286 286 284 282 280 278 276 274 273 273 272 272 271 270 270 270 270 272 274 275 276 279 282 285 289 289 289 293 291 286 288 293 294 297 303 306 308 310 310 311 314 314 313 314
260 261 262 264 265 267 268 269 270 272 273 275 276 277 278 279 280 281 282 283 284 284 285 286 287 288 290 292 293 294 295 296 296 294 292 293 295 295 293 291 288 286 285 284 282 279 278 277 274 271 271 273 274 274 273 271 268 265 266 270 274 277 280 282 283 286 286 287 290 289 286 287 290 292 296 302 304 307 310 311 312 315 314 312 312
261 262 263 264 265 266 268 269 271 272 274 275 276 277 278 279 280 281 282 283 284 285 285 286 287 289 290 292 293 294 294 294 294 291 289 293 299 301 300 296 291 286 284 283 281 278 278 278 277 275 274 274 274 274 273 273 272 268 266 270 276 279 280 281 281 282 286 288 288 286 286 287 288 290 295 301 303 305 309 311 313 314 312 310 310
261 262 263 264 265 266 268 269 271 272 274 275 276 277 278 279 280 281 282 283 283 284 285 286 288 290 291 292 294 294 293 293 291 286 283 288 297 302 303 298 292 288 285 282 280 278 277 277 277 276 276 275 274 271 269 271 273 271 269 272 278 279 279 280 277 276 282 289 286 283 285 285 285 289 294 298 302 305 307 309 311 312 311 310 309
262 263 264 265 266 267 268 269 270 272 273 274 275 276 277 278 279 280 281 282 282 283 285 286 288 289 291 292 293 293 291 290 289 285 282 285 291 297 300 298 292 287 283 281 279 278 279 280 279 278 276 273 270 267 265 266 269 268 266 270 275 275 273 272 269 268 278 286 283 278 280 282 283 288 294 297 301 303 304 306 308 309 309 308 308
262 263 264 265 266 267 268 269 270 271 272 273 274 275 276 277 278 279 280 281 282 283 285 286 288 289 291 291 291 290 288 287 288 286 285 286 289 293 295 294 290 285 281 279 278 278 280 281 280 278 275 270 266 265 265 265 266 266 265 268 273 272 268 262 260 264 274 282 280 276 279 282 283 287 293 297 299 301 302 303 305 306 306 306 306
263 264 265 265 266 267 268 269 270 271 272 273 274 275 276 277 278 279 280 281 282 283 285 286 288 289 290 290 288 287 286 286 287 287 287 288 290 291 292 290 287 283 280 278 278 279 279 277 276 275 271 266 264 266 266 263 257 257 263 269 271 272 271 264 260 263 271 276 276 276 279 281 283 286 291 296 299 299 301 303 304 303 303 303 304
263 264 265 266 267 268 269 270 271 271 272 273 274 275 276 277 278 279 280 281 282 284 285 287 288 289 289 289 287 285 285 287 288 288 288 289 290 291 290 288 285 280 277 275 276 278 277 274 273 273 268 264 264 266 268 264 254 250 257 263 262 264 266 262 258 262 268 270 272 276 279 281 284 287 290 294 297 299 300 300 300 300 301 301 302
262 263 265 266 267 268 269 270 270 271 272 273 274 275 276 277 278 279 280 281 282 284 285 286 287 288 287 287 286 285 285 287 289 289 289 290 291 290 289 287 283 278 275 272 270 271 272 271 270 268 265 264 266 268 269 266 255 247 249 253 254 257 258 252 251 259 266 266 269 275 279 281 284 286 288 292 295 296 297 297 297 299 300 300 300
261 263 264 265 266 267 268 269 270 271 272 273 274 275 277 277 278 279 280 281 282 284 284 286 286 286 286 285 284 284 286 288 289 290 290 290 290 288 287 285 281 275 270 267 264 264 267 266 265 265 265 266 268 269 269 262 247 240 242 245 249 251 249 245 248 259 266 266 267 270 272 276 280 283 287 291 293 293 293 293 295 297 298 297 297
261 262 264 265 266 267 268 269 270 272 273 274 275 276 277 278 279 280 281 282 283 284 285 286 286 286 285 284 283 284 286 288 290 291 291 290 289 286 285 283 277 269 262 259 259 263 267 265 262 263 266 266 267 269 267 254 237 233 236 241 245 246 242 242 249 260 268 271 271 268 268 273 278 281 285 288 289 289 290 291 293 294 294 295 295
261 262 264 265 266 267 268 269 271 272 273 274 275 276 277 278 279 281 282 283 284 285 285 286 286 285 284 283 282 283 286 288 290 290 290 288 287 285 283 278 271 263 254 249 252 258 263 263 263 265 267 266 266 268 263 251 241 237 239 242 245 245 242 243 252 265 274 277 277 273 272 276 279 281 283 285 285 286 288 289 290 291 292 292 294
262 263 264 265 266 267 268 270 271 272 273 274 275 276 277 279 280 281 282 283 284 284 284 284 284 283 282 281 282 284 287 289 291 292 291 288 286 284 280 273 265 257 248 244 247 250 252 255 258 258 257 254 250 246 245 245 244 244 245 247 249 250 247 249 259 271 277 276 275 274 275 278 279 280 281 281 282 284 285 286 287 289 290 291 292
264 264 265 266 267 268 269 271 272 273 274 275 275 276 277 279 280 281 282 283 283 283 283 283 283 282 282 283 285 287 289 290 293 294 293 289 286 282 276 268 260 252 246 244 245 242 238 237 238 237 236 236 232 230 237 247 252 257 261 263 262 259 254 255 263 272 274 272 273 275 276 277 279 279 279 280 280 282 283 283 285 286 288 289 290
265 266 267 268 269 270 271 272 273 274 275 276 276 277 278 279 280 281 282 283 283 284 284 284 284 284 285 287 289 290 291 292 295 297 296 292 287 281 273 263 254 246 244 244 241 232 223 218 217 216 216 217 221 235 254 261 258 258 264 268 267 262 258 257 262 267 269 270 273 276 277 277 278 277 277 277 278 279 281 282 283 285 286 288 289
266 267 268 269 270 271 272 273 274 275 276 276 277 278 280 281 281 282 282 283 283 284 285 285 286 287 288 289 290 291 291 292 295 298 298 295 289 281 272 261 250 242 240 239 235 230 222 214 211 210 209 208 212 225 240 244 240 237 238 243 250 255 257 257 258 260 263 266 270 273 275 275 275 274 274 275 276 277 279 281 282 283 285 286 286
265 267 268 269 271 272 273 274 274 274 273 274 275 277 279 280 281 281 282 282 283 283 284 285 286 286 287 288 289 290 290 292 294 297 299 297 292 283 273 261 249 242 239 234 230 229 227 219 212 212 215 216 218 220 221 223 225 225 226 230 237 247 253 254 253 256 261 264 266 268 270 270 270 271 273 274 275 277 279 280 281 282 283 284 284
265 266 267 269 270 270 270 270 270 270 271 272 274 276 277 278 279 280 280 281 280 281 281 283 283 284 285 286 287 288 289 291 293 296 298 298 294 286 277 264 249 243 240 235 228 228 229 224 216 212 212 215 218 220 221 223 227 228 228 231 237 243 249 251 253 257 261 262 262 263 265 265 267 270 273 275 276 278 279 279 279 279 280 282 282
264 265 266 267 267 267 266 267 267 268 270 272 273 274 275 276 277 278 278 279 279 279 280 281 282 282 284 285 286 287 288 290 292 294 296 297 295 289 282 270 254 243 240 235 229 227 230 228 221 215 212 211 213 216 219 224 231 235 236 238 241 245 249 252 254 257 259 260 260 261 263 266 268 270 272 274 276 277 277 277 277 278 279 280 281
263 263 263 263 263 264 265 265 266 267 269 270 272 272 274 275 276 277 277 277 278 278 279 280 281 282 283 284 285 286 287 289 291 293 295 296 295 290 285 276 262 247 240 236 230 227 229 230 227 223 221 219 219 222 226 232 237 242 244 245 246 249 251 252 254 256 258 259 259 261 264 266 268 270 272 274 275 275 274 275 275 276 278 280 282
Height
10975 10978 10979 10981 10983 10985 10986 10988 10989 10990 10990 10991 10992 10993 10993 10994 10994 10994 10994 10994 10995 10995 10995 10996 10996 10996 10996 10995 10995 10995 10995 10995 10995 10995 10995 10994 10993 10992 10991 10991 10990 10989 10988 10987 10986 10984 10982 10981 10979 10978 10976 10974 10972 10970 10967 10965 10963 10962 10960 10958 10957 10956 10954 10952 10950 10947 10945 10943 10941 10939 10936 10934 10931 10929 10927 10924 10922 10920 10917 10913 10910 10906 10902 10899 10895
10972 10975 10977 10978 10980 10982 10983 10984 10986 10987 10988 10988 10989 10990 10991 10991 10992 10992 10992 10992 10992 10992 10993 10993 10994 10994 10994 10993 10993 10992 10992 10992 10992 10992 10992 10991 10990 10989 10989 10988 10987 10986 10986 10984 10983 10982 10980 10978 10977 10975 10973 10971 10969 10968 10965 10963 10960 10959 10957 10955 10953 10952 10950 10949 10947 10945 10943 10940 10937 10935 10933 10930 10928 10926 10924 10921 10918 10916 10914 10911 10907 10903 10899 10896 10892
10970 10972 10973 10975 10977 10978 10979 10981 10982 10983 10984 10986 10987 10987 10988 10988 10989 10989 10989 10990 10990 10990 10990 10991 10991 10991 10991 10991 10990 10990 10989 10989 10989 10989 10989 10988 10987 10986 10985 10984 10984 10983 10982 10981 10980 10979 10977 10976 10974 10972 10970 10968 10966 10965 10963 10960 10958 10956 10954 10952 10949 10948 10946 10945 10944 10942 10940 10937 10934 10932 10929 10927 10924 10922 10920 10917 10915 10912 10910 10907 10903 10899 10895 10891 10887
10967 10968 10969 10971 10973 10974 10975 10977 10979 10980 10981 10982 10983 10984 10985 10985 10986 10986 10986 10987 10987 10987 10988 10988 10988 10988 10989 10989 10988 10987 10986 10986 10985 10985 10986 10985 10984 10983 10982 10981 10980 10979 10979 10978 10977 10975 10974 10972 10971 10969 10967 10965 10963 10962 10960 10958 10955 10953 10951 10949 10946 10944 10943 10941 10940 10938 10937 10934 10931 10929 10926 10923 10920 10918 10916 10913 10910 10908 10905 10902 10898 10895 10891 10886 10882
10964 10965 10966 10968 10969 10970 10971 10973 10975 10976 10978 10979 10980 10981 10982 10982 10983 10983 10984 10984 10984 10985 10985 10985 10985 10985 10986 10986 10985 10984 10984 10983 10982 10982 10982 10982 10981 10980 10979 10978 10977 10975 10975 10974 10973 10972 10970 10969 10967 10965 10964 10961 10960 10958 10956 10954 10952 10950 10948 10946 10944 10941 10939 10937 10936 10934 10933 10931 10928 10925 10922 10919 10917 10914 10912 10909 10906 10903 10901 10898 10894 10891 10887 10882 10878
10960 10961 10963 10965 10965 10966 10967 10969 10971 10973 10975 10976 10976 10977 10978 10979 10980 10980 10981 10981 10981 10981 10982 10982 10982 10982 10983 10983 10982 10982 10981 10980 10979 10978 10979 10979 10978 10977 10975 10974 10973 10972 10970 10970 10969 10968 10966 10965 10963 10962 10960 10958 10956 10954 10952 10950 10949 10947 10945 10942 10940 10938 10936 10934 10932 10930 10929 10927 10924 10921 10919 10916 10913 10911 10908 10906 10903 10900 10897 10894 10891 10887 10883 10879 10874
10955 10957 10959 10960 10961 10962 10964 10966 10968 10970 10972 10972 10973 10973 10974 10975 10976 10977 10977 10978 10978 10978 10979 10979 10979 10979 10979 10980 10979 10979 10978 10977 10976 10975 10975 10975 10975 10974 10972 10970 10969 10968 10967 10965 10964 10963 10962 10961 10959 10957 10956 10954 10952 10950 10948 10946 10944 10942 10941 10939 10936 10934 10931 10930 10928 10926 10924 10922 10920 10917 10915 10912 10909 10907 10905 10902 10899 10896 10893 10890 10888 10884 10880 10875 10870
10951 10952 10955 10956 10956 10958 10960 10963 10966 10968 10969 10969 10969 10970 10971 10972 10973 10973 10974 10975 10975 10975 10975 10975 10975 10975 10975 10976 10976 10975 10974 10973 10972 10971 10971 10971 10971 10970 10969 10967 10965 10964 10963 10961 10960 10959 10957 10956 10955 10953 10951 10950 10948 10945 10943 10941 10939 10937 10936 10935 10932 10929 10927 10925 10923 10921 10919 10917 10915 10913 10910 10908 10905 10903 10901 10898 10895 10892 10889 10886 10884 10881 10876 10872 10866
10947 10949 10951 10952 10952 10955 10958 10961 10963 10965 10966 10966 10966 10967 10968 10969 10969 10970 10971 10971 10971 10972 10972 10972 10971 10971 10971 10971 10971 10971 10970 10969 10969 10968 10967 10967 10966 10966 10965 10963 10961 10960 10959 10957 10955 10954 10953 10951 10950 10948 10946 10945 10943 10941 10938 10936 10934 10932 10930 10929 10928 10925 10922 10920 10918 10916 10914 10912 10910 10908 10905 10903 10901 10899 10897 10894 10891 10888 10885 10881 10879 10876 10872 10868 10863
10943 10945 10947 10948 10949 10952 10955 10957 10959 10961 10961 10962 10962 10963 10964 10965 10966 10966 10967 10967 10968 10968 10968 10968 10967 10968 10967 10967 10967 10966 10966 10965 10965 10964 10964 10963 10963 10962 10961 10959 10957 10956 10955 10953 10951 10949 10948 10946 10945 10943 10941 10939 10937 10936 10933 10930 10929 10926 10924 10923 10923 10921 10918 10915 10913 10911 10909 10907 10905 10903 10900 10898 10896 10895 10893 10891 10887 10884 10881 10877 10874 10872 10868 10864 10860
10939 10940 10942 10944 10946 10949 10950 10952 10954 10956 10957 10958 10958 10959 10960 10961 10961 10961 10962 10963 10963 10964 10964 10963 10964 10964 10964 10963 10963 10962 10961 10961 10960 10960 10960 10959 10958 10957 10956 10955 10953 10951 10950 10948 10946 10944 10943 10941 10939 10938 10935 10933 10932 10930 10928 10925 10923 10921 10918 10916 10916 10916 10913 10910 10907 10905 10904 10901 10899 10898 10896 10894 10892 10891 10889 10887 10883 10879 10876 10873 10870 10867 10863 10859 10856
10934 10936 10938 10941 10943 10944 10945 10948 10950 10951 10952 10953 10953 10955 10956 10956 10956 10957 10957 10958 10959 10959 10959 10959 10960 10960 10959 10959 10959 10958 10957 10956 10956 10955 10955 10954 10954 10953 10952 10950 10949 10946 10944 10942 10941 10939 10937 10935 10934 10932 10929 10928 10926 10925 10923 10920 10917 10915 10912 10910 10909 10909 10908 10905 10901 10900 10898 10896 10894 10892 10891 10889 10888 10886 10884 10882 10879 10875 10872 10868 10865 10862 10858 10855 10851
10929 10931 10934 10937 10938 10939 10941 10944 10945 10945 10946 10948 10949 10950 10951 10951 10952 10952 10953 10954 10954 10954 10954 10955 10955 10955 10954 10954 10954 10953 10952 10951 10950 10950 10950 10949 10949 10948 10946 10944 10942 10940 10938 10937 10935 10933 10931 10929 10928 10926 10923 10921 10920 10919 10917 10915 10912 10909 10906 10903 10902 10902 10901 10899 10895 10893 10892 10890 10888 10887 10885 10884 10883 10881 10879 10877 10875 10871 10867 10864 10860 10857 10853 10849 10846
10926 10927 10930 10932 10933 10934 10937 10939 10940 10940 10941 10943 10944 10945 10946 10947 10948 10948 10948 10948 10949 10949 10950 10950 10950 10950 10949 10948 10948 10947 10946 10945 10945 10944 10944 10943 10942 10941 10940 10938 10936 10934 10932 10931 10929 10927 10925 10923 10921 10920 10917 10914 10913 10912 10911 10908 10907 10904 10900 10897 10896 10895 10894 10891 10889 10887 10886 10885 10883 10881 10880 10879 10878 10876 10874 10871 10869 10866 10862 10859 10855 10851 10848 10844 10840
10922 10924 10925 10927 10928 10930 10932 10934 10936 10936 10937 10938 10939 10940 10941 10942 10942 10942 10943 10943 10944 10945 10945 10945 10945 10944 10944 10943 10942 10940 10939 10939 10938 10938 10937 10936 10936 10935 10933 10931 10929 10927 10925 10924 10923 10921 10919 10917 10915 10913 10911 10908 10905 10904 10904 10902 10899 10898 10895 10892 10891 10889 10887 10884 10882 10881 10880 10879 10878 10876 10875 10874 10872 10871 10869 10867 10864 10861 10858 10854 10850 10846 10843 10839 10835
10918 10919 10920 10921 10923 10925 10927 10930 10931 10931 10932 10933 10933 10934 10935 10936 10937 10938 10939 10939 10938 10939 10939 10939 10939 10938 10938 10938 10937 10935 10933 10932 10931 10930 10929 10929 10929 10928 10926 10925 10922 10919 10917 10917 10916 10915 10912 10910 10908 10906 10904 10902 10898 10896 10897 10896 10892 10890 10889 10887 10885 10884 10881 10878 10876 10876 10875 10873 10873 10872 10870 10869 10867 10866 10864 10862 10859 10856 10853 10849 10845 10841 10838 10834 10830
10913 10914 10915 10917 10919 10921 10923 10924 10925 10925 10926 10926 10926 10927 10928 10930 10932 10933 10933 10933 10933 10933 10933 10933 10932 10932 10931 10931 10931 10929 10927 10926 10924 10922 10921 10921 10922 10921 10920 10919 10917 10913 10910 10910 10909 10908 10906 10903 10901 10898 10896 10896 10892 10889 10890 10891 10887 10884 10883 10881 10880 10878 10876 10873 10871 10870 10870 10868 10867 10866 10865 10864 10862 10861 10859 10856 10854 10851 10848 10844 10840 10836 10832 10829 10824
10908 10909 10911 10913 10914 10916 10917 10918 10918 10919 10919 10919 10920 10921 10923 10925 10926 10926 10927 10927 10927 10927 10926 10926 10926 10925 10925 10924 10923 10922 10920 10919 10917 10915 10914 10913 10914 10914 10914 10913 10911 10907 10904 10904 10902 10901 10899 10896 10894 10892 10890 10890 10888 10883 10883 10885 10884 10881 10877 10875 10874 10872 10871 10869 10866 10865 10865 10864 10862 10861 10860 10859 10858 10856 10854 10851 10849 10846 10842 10839 10835 10831 10827 10824 10819
10903 10904 10906 10907 10908 10909 10911 10912 10913 10913 10913 10913 10914 10916 10917 10918 10918 10919 10919 10920 10920 10920 10919 10919 10919 10919 10918 10917 10916 10914 10913 10912 10911 10908 10907 10906 10905 10906 10907 10906 10904 10901 10899 10899 10897 10895 10892 10889 10887 10886 10884 10885 10883 10878 10876 10879 10880 10877 10874 10870 10868 10866 10866 10865 10862 10860 10860 10859 10858 10857 10855 10854 10853 10851 10849 10846 10844 10841 10837 10833 10830 10826 10822 10819 10814
10898 10899 10900 10900 10901 10902 10905 10906 10907 10907 10907 10908 10909 10909 10909 10910 10910 10911 10912 10913 10914 10913 10913 10913 10913 10912 10912 10911 10910 10908 10907 10906 10905 10902 10901 10899 10898 10898 10899 10898 10897 10896 10895 10895 10893 10890 10887 10883 10881 10879 10878 10879 10878 10874 10872 10873 10874 10873 10870 10866 10863 10861 10862 10860 10857 10855 10855 10854 10853 10852 10850 10850 10848 10846 10844 10842 10839 10836 10832 10828 10825 10821 10817 10814 10810
10892 10893 10894 10895 10895 10896 10899 10900 10900 10901 10902 10902 10903 10903 10903 10903 10904 10905 10905 10907 10907 10907 10907 10908 10907 10906 10906 10905 10904 10903 10901 10901 10900 10897 10895 10893 10891 10891 10892 10891 10889 10889 10890 10889 10887 10884 10882 10879 10877 10874 10871 10872 10872 10869 10867 10867 10868 10868 10865 10861 10859 10858 10858 10857 10853 10850 10850 10849 10848 10847 10845 10845 10844 10841 10839 10836 10833 10830 10826 10822 10819 10816 10812 10808 10804
10886 10887 10889 10889 10890 10891 10893 10894 10894 10895 10896 10897 10897 10898 10898 10898 10899 10900 10900 10901 10901 10901 10901 10902 10902 10902 10901 10900 10899 10897 10896 10895 10895 10892 10889 10887 10885 10884 10884 10884 10882 10882 10884 10883 10880 10877 10875 10874 10873 10870 10866 10865 10865 10864 10863 10863 10863 10862 10860 10857 10855 10854 10854 10853 10850 10846 10845 10844 10843 10842 10840 10839 10838 10836 10834 10831 10827 10823 10820 10817 10814 10811 10807 10803 10799
10880 10882 10883 10884 10884 10885 10887 10888 10889 10890 10891 10891 10892 10892 10893 10894 10895 10895 10896 10896 10897 10897 10897 10897 10897 10897 10896 10895 10894 10892 10891 10890 10889 10886 10882 10880 10879 10878 10877 10876 10876 10877 10877 10876 10873 10871 10869 10868 10867 10865 10862 10860 10858 10857 10858 10859 10859 10858 10856 10854 10852 10851 10849 10849 10846 10842 10840 10839 10838 10836 10835 10833 10832 10831 10828 10826 10821 10817 10815 10812 10809 10806 10802 10798 10794
10875 10876 10877 10878 10879 10880 10881 10883 10884 10885 10885 10886 10887 10887 10888 10889 10890 10890 10891 10891 10892 10892 10892 10892 10893 10892 10891 10890 10888 10887 10886 10885 10884 10880 10876 10873 10872 10872 10870 10868 10869 10869 10869 10868 10866 10864 10863 10863 10863 10860 10857 10856 10854 10852 10853 10855 10854 10853 10852 10850 10849 10846 10844 10844 10842 10838 10836 10835 10833 10831 10830 10828 10827 10825 10822 10820 10816 10812 10810 10807 10803 10800 10797 10793 10789
10869 10871 10872 10873 10873 10874 10876 10877 10878 10879 10880 10881 10881 10882 10882 10884 10885 10885 10885 10886 10886 10887 10886 10886 10886 10885 10884 10883 10882 10881 10880 10879 10877 10874 10871 10867 10865 10864 10862 10860 10860 10860 10861 10860 10858 10857 10856 10857 10857 10856 10853 10851 10849 10847 10848 10849 10848 10848 10847 10845 10843 10840 10837 10837 10837 10833 10830 10830 10829 10827 10825 10823 10821 10819 10817 10814 10811 10807 10804 10802 10798 10794 10791 10788 10784
10863 10865 10866 10866 10867 10868 10869 10870 10872 10873 10874 10875 10875 10876 10877 10878 10879 10879 10879 10880 10880 10880 10880 10880 10879 10879 10878 10877 10876 10875 10874 10872 10870 10867 10865 10863 10860 10857 10855 10853 10851 10851 10852 10851 10849 10849 10850 10850 10851 10851 10849 10847 10846 10844 10843 10844 10843 10842 10840 10836 10835 10833 10832 10831 10831 10829 10826 10824 10823 10822 10819 10818 10816 10814 10811 10809 10806 10802 10799 10796 10793 10790 10787 10783 10779
10857 10858 10859 10860 10861 10862 10863 10864 10865 10867 10867 10868 10869 10869 10870 10871 10872 10872 10872 10873 10873 10873 10872 10872 10872 10873 10872 10871 10870 10868 10867 10865 10863 10860 10859 10858 10855 10851 10848 10847 10845 10844 10844 10844 10841 10840 10842 10845 10846 10847 10845 10844 10842 10839 10837 10837 10835 10833 10831 10828 10826 10826 10826 10825 10826 10824 10821 10819 10818 10816 10814 10812 10811 10809 10806 10803 10800 10797 10793 10791 10788 10786 10782 10778 10775
10851 10852 10853 10854 10855 10856 10856 10857 10858 10859 10860 10861 10861 10862 10863 10864 10864 10864 10865 10865 10866 10865 10865 10865 10865 10866 10865 10864 10864 10862 10860 10858 10855 10853 10851 10852 10850 10846 10841 10840 10839 10838 10838 10836 10833 10832 10835 10839 10841 10842 10841 10839 10837 10834 10831 10830 10829 10827 10825 10822 10821 10820 10819 10819 10820 10819 10816 10814 10813 10812 10809 10807 10805 10804 10801 10798 10795 10792 10789 10786 10783 10781 10778 10775 10772
10845 10846 10847 10847 10848 10849 10850 10850 10852 10853 10853 10854 10855 10856 10856 10856 10856 10857 10857 10858 10857 10857 10857 10858 10858 10858 10858 10857 10857 10856 10854 10851 10848 10846 10844 10844 10844 10842 10837 10834 10832 10832 10831 10829 10825 10825 10828 10832 10834 10836 10835 10833 10831 10827 10824 10822 10822 10822 10821 10819 10817 10815 10813 10812 10813 10814 10811 10810 10809 10807 10804 10802 10800 10798 10796 10794 10791 10788 10785 10781 10778 10777 10775 10772 10769
10838 10839 10840 10841 10841 10842 10843 10844 10845 10845 10846 10847 10849 10849 10849 10849 10849 10850 10851 10851 10850 10850 10850 10850 10850 10851 10851 10850 10849 10849 10847 10844 10840 10838 10837 10835 10835 10835 10833 10828 10825 10824 10823 10822 10819 10817 10821 10826 10830 10832 10832 10830 10825 10821 10817 10813 10811 10811 10812 10812 10811 10810 10807 10804 10804 10805 10805 10804 10803 10802 10799 10796 10794 10792 10791 10789 10786 10783 10781 10777 10774 10772 10771 10768 10766
10831 10832 10832 10833 10834 10835 10836 10837 10837 10837 10838 10840 10842 10842 10841 10841 10842 10843 10843 10842 10842 10842 10842 10842 10842 10842 10843 10843 10842 10840 10839 10837 10833 10829 10827 10825 10823 10823 10823 10821 10818 10816 10814 10814 10813 10810 10811 10816 10819 10820 10819 10815 10810 10808 10806 10800 10796 10795 10796 10797 10798 10800 10800 10797 10795 10796 10798 10797 10796 10796 10793 10790 10788 10787 10785 10783 10781 10779 10776 10772 10769 10767 10766 10763 10760
10823 10824 10825 10825 10826 10827 10828 10829 10829 10830 10830 10832 10833 10834 10833 10833 10834 10834 10833 10834 10834 10834 10834 10833 10833 10833 10833 10834 10834 10832 10830 10828 10825 10821 10817 10814 10812 10812 10811 10811 10810 10807 10804 10805 10807 10803 10799 10800 10802 10800 10798 10793 10791 10791 10790 10785 10781 10782 10783 10783 10784 10787 10791 10789 10787 10789 10790 10789 10788 10788 10786 10784 10783 10781 10780 10778 10776 10773 10772 10768 10764 10762 10760 10757 10755
10816 10816 10817 10817 10818 10820 10820 10820 10821 10822 10822 10823 10824 10824 10824 10825 10826 10825 10824 10824 10824 10824 10825 10825 10825 10824 10824 10824 10824 10824 10822 10819 10816 10813 10809 10806 10803 10802 10801 10802 10801 10797 10793 10796 10798 10795 10789 10787 10787 10787 10786 10784 10782 10782 10781 10776 10772 10773 10775 10776 10776 10778 10781 10781 10780 10782 10783 10781 10780 10781 10779 10778 10777 10775 10774 10773 10770 10768 10767 10763 10759 10756 10754 10752 10749
10808 10809 10809 10810 10811 10812 10812 10812 10813 10814 10814 10814 10815 10815 10815 10816 10817 10817 10816 10816 10815 10814 10815 10815 10815 10815 10815 10815 10815 10815 10814 10811 10807 10804 10801 10798 10796 10794 10793 10793 10791 10787 10784 10787 10789 10787 10781 10778 10776 10776 10777 10777 10774 10774 10773 10771 10768 10768 10770 10772 10772 10772 10773 10772 10773 10775 10776 10773 10773 10774 10772 10771 10770 10769 10768 10767 10764 10762 10760 10757 10753 10750 10748 10746 10745
10799 10800 10801 10801 10802 10803 10804 10804 10804 10805 10805 10806 10806 10806 10807 10807 10807 10808 10808 10808 10807 10806 10806 10806 10806 10806 10806 10806 10806 10805 10805 10803 10800 10797 10794 10791 10788 10787 10787 10785 10782 10778 10776 10776 10777 10775 10773 10770 10768 10767 10767 10767 10766 10766 10766 10764 10763 10764 10765 10766 10766 10766 10764 10764 10765 10769 10770 10767 10766 10767 10765 10764 10764 10763 10761 10760 10758 10755 10752 10749 10747 10745 10743 10741 10740
10790 10791 10792 10792 10793 10794 10795 10795 10796 10796 10797 10797 10797 10798 10798 10798 10799 10799 10799 10798 10798 10798 10798 10798 10797 10797 10798 10797 10797 10796 10795 10794 10791 10788 10786 10783 10781 10780 10779 10777 10774 10771 10768 10766 10765 10764 10763 10761 10759 10758 10758 10758 10758 10759 10759 10758 10758 10758 10759 10761 10760 10758 10758 10758 10759 10762 10763 10761 10760 10760 10759 10758 10758 10757 10756 10754 10752 10750 10746 10744 10742 10741 10738 10736 10735
10781 10782 10782 10783 10784 10785 10786 10786 10787 10787 10788 10788 10788 10789 10789 10789 10790 10790 10790 10789 10789 10789 10789 10789 10789 10789 10790 10790 10788 10787 10786 10784 10782 10780 10778 10776 10773 10772 10772 10769 10766 10763 10760 10757 10755 10755 10756 10753 10750 10748 10749 10751 10751 10752 10752 10752 10752 10752 10753 10755 10755 10753 10753 10755 10756 10756 10755 10755 10754 10753 10752 10751 10751 10751 10749 10748 10747 10744 10741 10739 10738 10736 10734 10732 10730
10772 10772 10772 10773 10774 10775 10776 10777 10778 10778 10778 10779 10779 10779 10779 10779 10780 10780 10780 10780 10780 10780 10781 10781 10781 10780 10780 10780 10780 10778 10777 10774 10773 10771 10769 10767 10765 10763 10763 10761 10758 10755 10753 10750 10748 10748 10748 10745 10742 10740 10742 10744 10745 10745 10745 10745 10747 10748 10748 10750 10752 10750 10751 10753 10753 10752 10750 10748 10748 10747 10746 10745 10746 10745 10743 10742 10741 10739 10736 10734 10733 10732 10729 10727 10724
10762 10762 10762 10763 10764 10765 10766 10767 10767 10768 10768 10769 10769 10769 10769 10770 10770 10770 10771 10771 10771 10771 10772 10772 10772 10771 10771 10770 10770 10769 10767 10765 10763 10761 10759 10757 10755 10753 10752 10751 10748 10747 10746 10744 10742 10741 10740 10738 10735 10735 10736 10737 10738 10738 10739 10740 10742 10743 10744 10747 10748 10749 10749 10749 10748 10747 10745 10742 10741 10741 10739 10739 10739 10739 10737 10735 10734 10732 10730 10728 10727 10726 10724 10721 10718
10752 10752 10753 10754 10754 10755 10755 10756 10757 10758 10759 10759 10759 10759 10760 10760 10760 10761 10761 10762 10762 10763 10763 10763 10763 10762 10761 10760 10760 10759 10757 10756 10754 10752 10750 10748 10746 10744 10742 10741 10739 10738 10738 10737 10736 10734 10733 10731 10730 10730 10731 10732 10732 10732 10733 10733 10734 10736 10740 10743 10745 10746 10746 10744 10741 10740 10738 10736 10736 10736 10734 10732 10732 10732 10730 10729 10728 10726 10724 10723 10722 10720 10718 10715 10712
10742 10743 10744 10744 10745 10745 10745 10746 10747 10748 10749 10749 10750 10750 10750 10750 10750 10751 10751 10752 10753 10753 10754 10754 10754 10753 10752 10751 10750 10749 10748 10746 10744 10742 10741 10740 10738 10735 10733 10731 10730 10729 10730 10730 10729 10728 10726 10725 10725 10725 10725 10726 10726 10726 10725 10726 10727 10730 10735 10738 10739 10740 10740 10738 10735 10733 10731 10730 10731 10731 10729 10727 10726 10725 10724 10723 10722 10720 10718 10717 10716 10714 10712 10709 10706
10733 10734 10734 10734 10735 10735 10736 10736 10737 10738 10739 10739 10739 10740 10740 10740 10740 10740 10740 10741 10742 10742 10742 10743 10743 10743 10742 10741 10740 10739 10738 10736 10734 10732 10731 10731 10730 10727 10725 10723 10721 10721 10722 10722 10722 10721 10719 10718 10719 10720 10720 10719 10720 10719 10719 10719 10721 10724 10728 10730 10731 10733 10733 10732 10729 10726 10724 10724 10724 10724 10723 10722 10720 10719 10718 10717 10715 10713 10711 10710 10709 10708 10706 10703 10700
10724 10724 10724 10725 10725 10725 10727 10727 10728 10728 10728 10728 10728 10729 10729 10729 10729 10729 10729 10730 10731 10731 10730 10731 10732 10732 10732 10731 10730 10729 10728 10726 10724 10722 10721 10721 10720 10718 10716 10715 10713 10713 10713 10713 10714 10714 10713 10712 10713 10714 10714 10713 10714 10714 10714 10715 10716 10719 10721 10724 10725 10726 10727 10726 10724 10720 10719 10718 10718 10717 10717 10716 10714 10713 10712 10710 10708 10707 10705 10703 10702 10701 10699 10696 10693
10714 10714 10715 10715 10715 10716 10717 10717 10717 10718 10717 10717 10717 10718 10718 10718 10718 10718 10718 10719 10719 10719 10719 10719 10720 10721 10722 10721 10720 10720 10718 10715 10713 10712 10711 10711 10710 10708 10707 10706 10705 10704 10705 10706 10707 10708 10707 10706 10706 10708 10708 10707 10707 10707 10708 10711 10713 10714 10716 10718 10718 10719 10719 10719 10717 10714 10713 10712 10711 10710 10710 10709 10707 10706 10705 10703 10701 10700 10699 10697 10695 10694 10692 10689 10686
10702 10703 10704 10705 10705 10706 10706 10706 10706 10706 10706 10705 10706 10706 10706 10706 10707 10707 10707 10707 10708 10709 10709 10709 10709 10710 10711 10711 10709 10708 10707 10704 10702 10701 10701 10701 10700 10699 10698 10698 10697 10696 10696 10699 10701 10701 10700 10699 10700 10700 10700 10700 10700 10701 10703 10706 10709 10711 10712 10713 10713 10713 10713 10711 10709 10708 10706 10704 10703 10703 10702 10701 10699 10699 10698 10695 10694 10693 10691 10690 10688 10686 10684 10681 10679
10691 10692 10693 10694 10695 10695 10694 10694 10694 10694 10694 10693 10693 10694 10695 10696 10696 10697 10697 10696 10697 10697 10697 10697 10697 10698 10698 10698 10697 10696 10695 10693 10691 10690 10690 10690 10689 10688 10688 10688 10688 10688 10689 10691 10692 10693 10692 10691 10692 10692 10691 10691 10692 10695 10698 10702 10706 10708 10709 10710 10709 10708 10707 10704 10701 10699 10698 10696 10695 10695 10695 10693 10692 10691 10690 10688 10686 10685 10684 10682 10680 10678 10676 10673 10671
10680 10681 10682 10683 10683 10683 10682 10682 10682 10683 10682 10681 10681 10682 10683 10684 10684 10685 10686 10686 10685 10685 10685 10686 10686 10686 10685 10685 10685 10685 10684 10683 10681 10681 10681 10680 10678 10677 10678 10678 10679 10679 10681 10683 10683 10684 10683 10683 10682 10682 10682 10682 10684 10687 10691 10696 10699 10702 10704 10705 10702 10699 10696 10694 10691 10690 10689 10688 10688 10688 10687 10685 10684 10683 10682 10679 10678 10677 10676 10674 10671 10669 10667 10665 10663
10669 10670 10671 10672 10672 10672 10671 10672 10672 10672 10672 10672 10672 10672 10672 10672 10672 10674 10675 10675 10675 10674 10673 10674 10675 10675 10674 10674 10674 10674 10673 10672 10671 10671 10672 10670 10667 10666 10667 10668 10669 10669 10672 10674 10675 10674 10674 10674 10673 10673 10674 10674 10676 10679 10682 10684 10686 10688 10690 10691 10688 10685 10682 10681 10680 10680 10681 10680 10680 10679 10678 10676 10674 10674 10673 10671 10670 10668 10667 10665 10663 10660 10658 10657 10655
10659 10661 10661 10662 10662 10662 10662 10662 10662 10662 10662 10662 10662 10662 10661 10661 10662 10662 10663 10664 10664 10664 10664 10664 10665 10664 10663 10662 10662 10662 10662 10661 10660 10660 10662 10662 10659 10656 10656 10658 10659 10659 10661 10664 10665 10664 10665 10665 10664 10664 10665 10667 10669 10671 10673 10673 10674 10674 10675 10674 10673 10672 10671 10671 10671 10672 10672 10672 10671 10670 10668 10666 10665 10664 10663 10662 10661 10660 10658 10655 10654 10651 10649 10648 10647
10649 10651 10651 10651 10651 10652 10652 10652 10653 10653 10652 10652 10651 10651 10650 10650 10651 10651 10651 10652 10652 10653 10653 10653 10654 10653 10652 10651 10651 10651 10651 10650 10650 10649 10650 10651 10651 10648 10645 10645 10647 10648 10650 10653 10654 10654 10655 10656 10656 10655 10656 10657 10659 10661 10662 10662 10662 10662 10663 10663 10663 10663 10662 10662 10663 10663 10663 10663 10662 10660 10658 10657 10656 10655 10653 10652 10652 10651 10648 10645 10643 10642 10641 10639 10637
10639 10640 10640 10640 10640 10641 10641 10642 10642 10642 10642 10641 10641 10640 10640 10640 10640 10640 10640 10640 10640 10641 10641 10641 10641 10641 10640 10640 10639 10639 10639 10639 10638 10638 10637 10639 10641 10639 10635 10634 10635 10636 10637 10640 10643 10644 10644 10645 10646 10646 10646 10646 10648 10649 10650 10650 10650 10651 10652 10653 10653 10652 10652 10653 10653 10653 10653 10652 10651 10650 10648 10646 10646 10645 10644 10642 10642 10641 10639 10636 10634 10633 10632 10630 10628